Midland, MI

10:32 PM EDT on June 27, 2017 (GMT -0400)
Barstow

Weather History for KIKW - May, 2013

Change the Weather History Date:

Friday, May 24, 2013

  Actual Average (KMBS) Record (KMBS)
Temperature  
Mean Temperature 46 °F -  
Max Temperature 57 °F 66 °F 88 °F (2007)
Min Temperature 34 °F 45 °F 37 °F (2013)
Degree Days  
Heating Degree Days 20    
Moisture  
Dew Point 37 °F    
Average Humidity 76    
Maximum Humidity 97    
Minimum Humidity 48    
Precipitation  
Precipitation 0.00 in - - ()
Sea Level Pressure  
Sea Level Pressure 30.31 in    
Wind  
Wind Speed 4 mph (North)    
Max Wind Speed 12 mph    
Max Gust Speed 20 mph    
Visibility 10 miles    
Events      
Averages and records for this station are not official NWS values.
T = Trace of Precipitation, MM = Missing Value Source: NWS Daily Summary

Daily Weather History Graph

Daily Weather History Graph

Search for Another Location

Airport or City:

Trip Planner

Search our weather history database for the weather conditions in past years. The results will help you decide how hot, cold, wet, or windy it might be!

Date:

Astronomy

May. 24, 2013 Rise Set
Actual Time 6:03 AM EDT 9:04 PM EDT
Civil Twilight 5:29 AM EDT 9:39 PM EDT
Nautical Twilight 4:45 AM EDT 10:23 PM EDT
Astronomical Twilight 3:53 AM EDT 11:15 PM EDT
Moon 8:45 PM EDT (5/24) 5:36 AM EDT (5/24)
Length of Visible Light 16h 10m
Length of Day
15h 01m
Full, 100% of the Moon is Illuminated
May 24
Full
May 25
Full
May 31
Last Quarter
Jun 8
New
Jun 16
First Quarter

Hourly Weather History & Observations

Time (EDT) Temp. Windchill Dew Point Humidity Pressure Visibility Wind Dir Wind Speed Gust Speed Precip Events Conditions
12:13 AM 43.2 °F 40.5 °F 39.2 °F 86% 30.19 in 10.0 mi NNW 4.6 mph - N/A   Overcast
12:33 AM 42.3 °F 39.4 °F 39.2 °F 89% 30.20 in 10.0 mi NW 4.6 mph - N/A   Mostly Cloudy
12:53 AM 41.5 °F 39.6 °F 38.7 °F 89% 30.20 in 10.0 mi NW 3.5 mph - N/A   Scattered Clouds
1:12 AM 41.0 °F 37.1 °F 38.3 °F 90% 30.20 in 10.0 mi NNW 5.8 mph - N/A   Clear
1:33 AM 40.3 °F 37.1 °F 37.6 °F 90% 30.21 in 10.0 mi NNW 4.6 mph - N/A   Clear
1:53 AM 40.1 °F 38.0 °F 37.4 °F 90% 30.21 in 10.0 mi NNW 3.5 mph - N/A   Clear
2:12 AM 39.7 °F 36.5 °F 37.0 °F 90% 30.22 in 10.0 mi NNW 4.6 mph - N/A   Clear
2:33 AM 39.0 °F 35.7 °F 36.7 °F 91% 30.22 in 10.0 mi NNW 4.6 mph - N/A   Clear
2:53 AM 38.5 °F 36.1 °F 36.5 °F 93% 30.22 in 10.0 mi NNW 3.5 mph - N/A   Clear
3:12 AM 38.5 °F - 36.7 °F 93% 30.23 in 10.0 mi Calm Calm - N/A   Clear
3:33 AM 37.4 °F - 36.3 °F 96% 30.24 in 10.0 mi Calm Calm - N/A   Clear
3:53 AM 36.7 °F 32.9 °F 35.6 °F 96% 30.25 in 10.0 mi NNW 4.6 mph - N/A   Clear
4:12 AM 36.9 °F - 36.0 °F 97% 30.25 in 10.0 mi Calm Calm - N/A   Clear
4:33 AM 36.7 °F 34.1 °F 35.8 °F 97% 30.26 in 10.0 mi North 3.5 mph - N/A   Scattered Clouds
4:52 AM 35.8 °F - 34.9 °F 97% 30.27 in 10.0 mi Calm Calm - N/A   Scattered Clouds
5:13 AM 36.0 °F - 34.9 °F 96% 30.27 in 10.0 mi Calm Calm - N/A   Clear
5:33 AM 35.4 °F 32.6 °F 34.2 °F 95% 30.27 in 10.0 mi NNW 3.5 mph - N/A   Clear
5:52 AM 34.9 °F 30.8 °F 33.8 °F 96% 30.29 in 10.0 mi NNW 4.6 mph - N/A   Clear
6:13 AM 34.9 °F - 33.3 °F 94% 30.29 in 10.0 mi Calm Calm - N/A   Clear
6:33 AM 35.2 °F - 33.8 °F 94% 30.29 in 10.0 mi Calm Calm - N/A   Clear
6:52 AM 35.1 °F - 33.8 °F 95% 30.31 in 10.0 mi Calm Calm - N/A   Clear
7:13 AM 36.7 °F - 34.7 °F 93% 30.32 in 10.0 mi Calm Calm - N/A   Clear
7:33 AM 38.5 °F 35.0 °F 35.8 °F 90% 30.32 in 10.0 mi NNW 4.6 mph - N/A   Clear
7:52 AM 39.2 °F 35.9 °F 34.5 °F 83% 30.33 in 10.0 mi NNW 4.6 mph - N/A   Clear
8:12 AM 40.3 °F 34.9 °F 34.0 °F 78% 30.33 in 10.0 mi North 8.1 mph - N/A   Clear
8:37 AM 41.0 °F 34.7 °F 32.0 °F 70% 30.34 in 10.0 mi NNE 10.4 mph 16.1 mph N/A   Scattered Clouds
8:52 AM 40.3 °F 35.5 °F 32.0 °F 72% 30.35 in 10.0 mi NNE 6.9 mph - N/A   Mostly Cloudy
8:53 AM 40.3 °F 35.5 °F 31.8 °F 72% 30.35 in 10.0 mi North 6.9 mph - N/A   Mostly Cloudy
9:12 AM 41.2 °F 35.0 °F 31.8 °F 69% 30.35 in 10.0 mi NNE 10.4 mph - N/A   Overcast
9:33 AM 41.0 °F 34.7 °F 31.5 °F 69% 30.36 in 10.0 mi North 10.4 mph - N/A   Overcast
9:52 AM 41.2 °F 36.6 °F 31.8 °F 69% 30.37 in 10.0 mi NNE 6.9 mph - N/A   Overcast
10:13 AM 43.3 °F 38.1 °F 32.5 °F 66% 30.37 in 10.0 mi North 9.2 mph - N/A   Overcast
10:33 AM 43.9 °F 39.9 °F 32.4 °F 64% 30.37 in 10.0 mi NNE 6.9 mph - N/A   Overcast
10:52 AM 44.4 °F 42.0 °F 32.2 °F 62% 30.37 in 10.0 mi NE 4.6 mph - N/A   Overcast
11:13 AM 45.9 °F 42.3 °F 34.5 °F 65% 30.38 in 10.0 mi NE 6.9 mph - N/A   Mostly Cloudy
11:33 AM 44.6 °F 40.7 °F 32.9 °F 64% 30.37 in 10.0 mi NW 6.9 mph - N/A   Mostly Cloudy
11:52 AM 46.4 °F 43.5 °F 33.4 °F 61% 30.37 in 10.0 mi NNE 5.8 mph - N/A   Mostly Cloudy
12:13 PM 46.9 °F - 34.0 °F 61% 30.37 in 10.0 mi Calm Calm - N/A   Mostly Cloudy
12:33 PM 48.9 °F - 34.7 °F 58% 30.37 in 10.0 mi ENE 3.5 mph - N/A   Mostly Cloudy
12:52 PM 49.5 °F - 34.0 °F 55% 30.37 in 10.0 mi SW 4.6 mph - N/A   Scattered Clouds
1:13 PM 50.4 °F - 35.2 °F 56% 30.37 in 10.0 mi Calm Calm - N/A   Scattered Clouds
1:33 PM 50.2 °F - 34.7 °F 55% 30.37 in 10.0 mi Calm Calm - N/A   Scattered Clouds
1:53 PM 51.1 °F - 35.1 °F 54% 30.37 in 10.0 mi NW 4.6 mph - N/A   Scattered Clouds
2:13 PM 53.2 °F - 36.9 °F 54% 30.36 in 10.0 mi WNW 5.8 mph - N/A   Scattered Clouds
2:33 PM 53.6 °F - 36.3 °F 52% 30.35 in 10.0 mi North 11.5 mph 18.4 mph N/A   Clear
2:53 PM 54.5 °F - 36.1 °F 50% 30.35 in 10.0 mi NW 10.4 mph 16.1 mph N/A   Clear
3:13 PM 55.0 °F - 37.0 °F 51% 30.34 in 10.0 mi NW 4.6 mph 19.6 mph N/A   Clear
3:32 PM 56.8 °F - 38.1 °F 50% 30.34 in 10.0 mi WNW 6.9 mph - N/A   Clear
3:53 PM 57.2 °F - 37.4 °F 48% 30.34 in 10.0 mi WNW 8.1 mph - N/A   Clear
4:13 PM 57.9 °F - 38.5 °F 48% 30.33 in 10.0 mi WNW 6.9 mph 17.3 mph N/A   Clear
4:32 PM 56.8 °F - 41.4 °F 56% 30.33 in 10.0 mi East 5.8 mph - N/A   Clear
4:53 PM 55.8 °F - 42.8 °F 62% 30.33 in 10.0 mi ENE 10.4 mph - N/A   Scattered Clouds
5:13 PM 55.4 °F - 43.3 °F 64% 30.33 in 10.0 mi East 10.4 mph - N/A   Clear
5:33 PM 55.2 °F - 42.4 °F 62% 30.32 in 10.0 mi ENE 5.8 mph - N/A   Clear
5:53 PM 55.4 °F - 43.3 °F 64% 30.32 in 10.0 mi East 5.8 mph - N/A   Clear
6:13 PM 55.0 °F - 42.8 °F 63% 30.32 in 10.0 mi ENE 6.9 mph - N/A   Clear
6:33 PM 54.5 °F - 43.3 °F 66% 30.31 in 10.0 mi East 8.1 mph - N/A   Clear
6:53 PM 53.8 °F - 42.8 °F 66% 30.31 in 10.0 mi ENE 9.2 mph - N/A   Clear
7:13 PM 52.9 °F - 43.0 °F 69% 30.30 in 10.0 mi ENE 9.2 mph - N/A   Clear
7:33 PM 52.7 °F - 42.6 °F 69% 30.30 in 10.0 mi East 8.1 mph - N/A   Clear
7:53 PM 51.1 °F - 42.3 °F 72% 30.30 in 10.0 mi ENE 8.1 mph - N/A   Clear
8:13 PM 50.2 °F - 41.7 °F 73% 30.30 in 10.0 mi East 5.8 mph - N/A   Clear
8:33 PM 49.1 °F - 41.0 °F 74% 30.30 in 10.0 mi ENE 5.8 mph - N/A   Clear
8:53 PM 47.7 °F - 40.3 °F 76% 30.30 in 10.0 mi NE 4.6 mph - N/A   Clear
9:13 PM 46.4 °F 42.9 °F 40.3 °F 79% 30.30 in 10.0 mi ENE 6.9 mph - N/A   Clear
9:33 PM 45.9 °F 44.6 °F 40.1 °F 80% 30.30 in 10.0 mi ENE 3.5 mph - N/A   Clear
9:53 PM 45.5 °F - 40.1 °F 81% 30.31 in 10.0 mi Calm Calm - N/A   Clear
10:13 PM 44.8 °F - 40.1 °F 84% 30.31 in 10.0 mi Calm Calm - N/A   Clear
10:33 PM 43.0 °F - 40.3 °F 90% 30.32 in 10.0 mi Calm Calm - N/A   Clear
10:54 PM 42.3 °F - 41.0 °F 95% 30.34 in 10.0 mi Calm Calm - N/A   Clear
11:13 PM 41.4 °F - 40.3 °F 96% 30.34 in 10.0 mi Calm Calm - N/A   Clear
11:33 PM 41.2 °F - 40.3 °F 97% 30.35 in 10.0 mi Calm Calm - N/A   Clear
11:54 PM 40.8 °F - 40.1 °F 97% 30.36 in 10.0 mi Calm Calm - N/A   Clear